Simultaneous Nadir Overpasses (SNOs) Predictions

Prediction of SNOs between NOAA-19 and TERRA Satellite Orbit:

Table of predicted SNOs for the next 14.0 days since TLE Epoch: 2/1/2015
Index Date (NOAA-19) Time (NOAA-19) Lat,Lon (NOAA-19) SZA (NOAA-19 ) Date (TERRA) Time (TERRA) Lat,Lon (TERRA) SZA (TERRA ) Distance(km) Time Diff (sec)
1 02/01/2015 14:45:53 71.55, -38.77 88.53 02/01/2015 14:46:54 71.54, -38.75 88.51 1.94 61
2 02/01/2015 15:36:46 -71.43, 128.73 91.61 02/01/2015 15:36:24 -71.42, 128.70 91.62 1.30 22
3 02/03/2015 20:20:19 -71.49, 57.77 92.19 02/03/2015 20:20:39 -71.48, 57.72 92.20 1.76 20
4 02/03/2015 21:11:21 71.19,-134.48 87.51 02/03/2015 21:10:08 71.27,-134.98 87.59 19.89 73
5 02/06/2015 01:03:52 -71.56, -13.21 92.78 02/06/2015 01:04:53 -71.58, -13.19 92.76 2.28 61
6 02/06/2015 01:54:57 71.41, 154.28 87.06 02/06/2015 01:54:21 71.42, 154.19 87.07 3.37 36
7 02/08/2015 06:38:30 71.48, 83.30 86.46 02/08/2015 06:38:35 71.49, 83.25 86.46 1.91 5
8 02/08/2015 07:29:20 -71.23,-108.97 93.82 02/08/2015 07:28:07 -71.28,-109.47 93.77 18.60 73
9 02/10/2015 11:22:03 71.57, 12.28 85.84 02/10/2015 11:22:49 71.55, 12.27 85.81 2.95 46
10 02/10/2015 12:12:56 -71.47, 179.74 94.27 02/10/2015 12:12:19 -71.44, 179.73 94.31 3.50 37
11 02/12/2015 16:05:46 72.18, -59.74 85.74 02/12/2015 16:06:54 72.07, -57.90 85.62 64.19 68
12 02/12/2015 16:56:28 -71.52, 108.80 94.95 02/12/2015 16:56:32 -71.53, 108.82 94.94 1.60 4
13 02/12/2015 17:47:19 70.65, -82.44 84.17 02/12/2015 17:46:12 70.71, -84.83 84.24 88.48 67
14 02/14/2015 21:40:00 -71.58, 37.85 95.63 02/14/2015 21:40:46 -71.56, 37.80 95.66 3.34 46
15 02/14/2015 22:31:05 71.43,-154.66 84.21 02/14/2015 22:30:13 71.44,-154.75 84.22 3.16 52




NCC Satellite Simultaneous Nadir Overpasses (SNOs) Prediction Service
